User: anonymous   Login
Location: Unspecified
(0.0000°N, 0.0000°E)
Time: 06:19:44
(UTC+00:00)
Language:

GRIFEX - Orbit

View from above orbital plane
View from above orbital plane
View from above satellite
View from above satellite

Ground track
Ground track

The orbit data is extracted from the following two-line orbital elements,

1 40379U 15003D   18116.66962246  .00001694  00000-0  77496-4 0  9997
2 40379  99.0963   4.6455 0139755  54.0356 307.3739 15.14196510178302
Epoch (UTC): 26 April 2018 16:04:15
Eccentricity: 0.0139755
inclination: 99.0963°
perigee height: 427 km
apogee height: 620 km
right ascension of ascending node: 4.6455°
argument of perigee: 54.0356°
revolutions per day: 15.14196510
mean anomaly at epoch: 307.3739°
orbit number at epoch: 17830

The dashed part of the orbit path shows where the satellite is in the earth's shadow,  

DLR